Regional Weather Roundup
Issued by NWS Green Bay, WI

Home | Current Version | Previous Version | Graphics & Text | Print | Product List | Glossary Off
Versions: 1 2 3 4 5 6 7 8 9 10 11 12 13 14 15 16 17 18 19 20 21 22 23 24 25 26 27 28 29 30 31 32 33 34 35 36 37 38 39 40 41 42 43 44 45 46 47 48 49 50

000
ASUS43 KGRB 210600
RWRGRB

NORTH-CENTRAL AND NORTHEAST WISCONSIN REGIONAL WEATHER ROUNDUP
NATIONAL WEATHER SERVICE GREEN BAY WI
1200 AM CST SAT JAN 21 2017

WIZ005-009-010>012-018-019-210700-
NORTH CENTRAL WISCONSIN

CITY           SKY/WX    TMP DP  RH WIND       PRES   REMARKS
IRONWOOD       CLOUDY    35  34  96 SE6       29.60F
MANITOWISH WTR NOT AVBL
ARBOR VITAE    NOT AVBL
EAGLE RIVER    NOT AVBL
LAND O LAKES   NOT AVBL
RHINELANDER    CLOUDY    34  33  96 SE7       29.62F FOG
PHILLIPS       CLOUDY    33  33 100 SE3       29.59F
ANTIGO         NOT AVBL
TOMAHAWK       NOT AVBL
MERRILL        CLOUDY    33  33 100 SE3         N/A  FOG
$$

WIZ013-073-210700-
NORTHEAST WISCONSIN

CITY           SKY/WX    TMP DP  RH WIND       PRES   REMARKS
IRON MOUNTAIN  FOG       32  30  92 CALM      29.65F VSB 3/4
MARINETTE      NOT AVBL
$$

WIZ017-030-035>037-045-210700-
CENTRAL WISCONSIN

CITY           SKY/WX    TMP DP  RH WIND       PRES   REMARKS
MEDFORD        NOT AVBL
WAUSAU         CLOUDY    33  33 100 E7        29.60F FOG
MOSINEE        NOT AVBL
MARSHFIELD     FOG       33  33 100 SE8       29.58F VSB 1/4
WISC RAPIDS    FOG       34  34 100 SE6       29.61F VSB 3/4
STEVENS POINT  NOT AVBL
WAUPACA        NOT AVBL
SHAWANO        NOT AVBL
CLINTONVILLE   FOG       32  32 100 E5        29.65F VSB 1/2
WAUTOMA        MIX PCPN  34  34 100 E5        29.63F VSB 1
$$

WIZ038-039-048-051-210700-
FOX VALLEY

CITY           SKY/WX    TMP DP  RH WIND       PRES   REMARKS
NWS GREEN BAY  FOG       35  35 100 NE6       29.66F VSB 1/4
APPLETON       NOT AVBL
OSHKOSH        FOG       34  33  96 E6        29.63F VSB 1/4
FOND DU LAC    CLOUDY    36  33  89 E3        29.63F FOG
$$

WIZ022-050-052-210700-
EAST CENTRAL WISCONSIN

CITY           SKY/WX    TMP DP  RH WIND       PRES   REMARKS
EPHRAIM        NOT AVBL
WASHINGTON ISL NOT AVBL
STURGEON BAY   FOG       34  33  96 CALM      29.68F VSB 1/2
MANITOWOC      NOT AVBL
SHEBOYGAN      FOG       35  34  96 CALM      29.65F VSB 1/4
$$

LMZ563-521-522-541>543-210700-
LAKESHORE

STATION/POSITION TIME  TEMP    WIND        PRES    VSBY  WAVE
                       AIR SEA DIR/SP/G                  HT/PER
                 (UTC) (F)     (DEG/KT/KT) (MB)    (MI)  (FT/S)
SHEBOYGAN LKSHOR 0500   37     110/  7/  8 1005.0R
KEWAUNEE LKSHORE 0530   35      CALM  /  2 1004.9F
NORTHPORT PIER   0540   33        CALM     1005.4S
SISTER BAY LKSHO 0520   32        CALM       N/A
$$




USA.gov is the U.S. government's official web portal to all federal, state and local government web resources and services.